DMSP 5D-2 F6 DEB, 40915

Orbit data source: Space-Track

DMSP 5D-2 F6 DEB, 40915 is space debris in SSO originally from a launch on Tue, 21 Dec 1982 UTC launched from the Air Force Western Test Range (AFWTR). Debris objects in space refer to the collection of defunct objects orbiting the Earth. Examples of debris include non-operational satellites, rocket bodies, and fragments generated from explosions, collisions, or faulty payload assembly.

Not visible in the next 10 days
Identifier
40915, 1982-118H
Orbit
SSO
Country
Flag of USUS
Related business
Manufacturer
Unknown
Mission
Spacecraft
Bus & Motor
Unknown
Mass
Unknown
Launch date (UTC)
1982-12-21 (43 years ago)
Launch vehicle
Unknown
Launch site
Air Force Western Test Range (AFWTR)
Object type
Payload
Rocket body
Debris
Shape & HBR
Unknown shape, 0.1 m
Radar Cross Section
Small (<0.1 m²)

Expand to show TLE details & history
Last TLE update: 2 weeks ago

TLE from 2 weeks ago
0 DMSP 5D-2 F6 DEB
1 40915U 82118H   25286.15912267  .00733777  00000-0  17424-1 0  9998
2 40915  98.3863 169.5652 0007453 108.1823 252.0232 15.39172461505043
Epoch: 2025-10-13T03:49Z
TLE epoch observation values (Epoch: 2025-10-13T03:49:08.198Z)
Latitude
0.00001°
Longitude
90.31513°
Altitude
453.215 km
Speed
7.64 km/s
True Right ascension
11h 18m 15s
True Declination
0° 00' 00"
Sunlit
Object was in daylight at epoch
Visualization orbit readout
Latitude
Unknown
Longitude
Unknown
Altitude
Unknown
Speed
Unknown
Apparent Right ascension
Unknown
Apparent Declination
Unknown
Sunlit
N/A
Visualization observer readout
Local Sidereal Time
13:14:19
Azimuth
Unknown
Elevation
Unknown
Doppler factor
Unknown
Orbital elements
Apogee altitude
450.626 km
Perigee altitude
440.455 km
Semi-major axis
6,823.677 km
Eccentricity
0.00075
Inclination
98.3863°
RAAN
169.5652°
Arg. of periapsis
108.1823°
True anomaly
251.94199°
Mean anomaly
252.0232°
Eccentric anomaly
251.98259°
Mean motion
3.85048 °/min
Orbital period
93.49 mins
BSTAR
0.017424
Loading maneuver chart data...
Computing Atmospheric mass density...
Loading historical data...
Loading historical data...
Loading historical data...
Loading historical data...
Loading historical data...
Loading historical data...
Loading historical data...

Documentation

Showing up to 5 results
|